Back to catalog

COSMOS 2251 DEB

AliveLEO
NORAD 35594·DEBRIS·🇷🇺 Russia

Launched Jun 16, 1993 from Plesetsk Cosmodrome

Loading…

Next Passes (next 24 hours)

TLE

FreshSource: Space-Track

Epoch: Sep 14, 2026, 10:31 UTC

1 35594U 93036AMM 26257.43854428  .00008243  00000-0  75932-3 0  9993
2 35594  73.8038 265.6099 0030242 316.9679  42.9139 14.94509075922966

Track COSMOS 2251 DEB in real time with AllMySat

Download on the App Store